timestamp,wind_dir_avg,wind_spd_avg,wind_spd_max_dir,wind_spd_gust,battery_voltage,lat,long
2021-12-29 00:04:01+00:00,337.0,10.29,329.0,12.19,12.57,47.59359,-54.27349
2021-12-29 00:14:01+00:00,339.0,10.91,318.0,13.27,12.57,47.59359,-54.27349
2021-12-29 00:24:01+00:00,334.0,11.22,321.0,13.41,12.57,47.59359,-54.27349
2021-12-29 00:34:01+00:00,341.0,10.81,320.0,13.2,12.57,47.59359,-54.27349
2021-12-29 00:44:01+00:00,347.0,11.52,339.0,13.43,12.57,47.59359,-54.27349
2021-12-29 00:54:01+00:00,338.0,12.58,324.0,15.31,12.57,47.59359,-54.27349
2021-12-29 01:04:01+00:00,345.0,12.88,329.0,15.76,12.57,47.59359,-54.27349
2021-12-29 01:14:01+00:00,354.0,10.63,352.0,12.17,12.57,47.59359,-54.27349
2021-12-29 01:24:01+00:00,353.0,11.45,354.0,13.72,12.57,47.59359,-54.27349
2021-12-29 01:34:01+00:00,347.0,12.01,346.0,13.79,12.57,47.59359,-54.27349
2021-12-29 01:44:01+00:00,337.0,12.62,330.0,15.47,12.57,47.59359,-54.27349
2021-12-29 01:54:01+00:00,335.0,13.61,328.0,15.35,12.57,47.59359,-54.27349
2021-12-29 02:04:01+00:00,340.0,11.84,323.0,15.21,12.57,47.59359,-54.27349
2021-12-29 02:14:01+00:00,350.0,10.62,342.0,12.97,12.49,47.59359,-54.27349
2021-12-29 02:24:01+00:00,352.0,10.15,354.0,11.92,12.49,47.59359,-54.27349
2021-12-29 02:34:01+00:00,349.0,11.4,327.0,14.96,12.49,47.59359,-54.27349
2021-12-29 02:44:01+00:00,342.0,12.22,324.0,15.92,12.49,47.59359,-54.27349
2021-12-29 02:54:01+00:00,337.0,11.38,318.0,13.68,12.49,47.59359,-54.27349
2021-12-29 03:04:01+00:00,331.0,9.87,313.0,12.6,12.49,47.59359,-54.27349
2021-12-29 03:14:00+00:00,333.0,11.41,321.0,14.47,12.49,47.59359,-54.27349
2021-12-29 03:24:00+00:00,328.0,8.93,312.0,11.97,12.49,47.59359,-54.27349
2021-12-29 03:34:00+00:00,334.0,11.56,318.0,13.94,12.49,47.59359,-54.27349
2021-12-29 03:44:00+00:00,330.0,9.81,322.0,11.89,12.49,47.59359,-54.27349
2021-12-29 03:54:00+00:00,333.0,9.41,318.0,11.62,12.49,47.59359,-54.27349
2021-12-29 04:04:00+00:00,334.0,10.96,323.0,12.93,12.49,47.59359,-54.27349
2021-12-29 04:14:00+00:00,336.0,10.74,342.0,13.2,12.49,47.59359,-54.27349
2021-12-29 04:24:00+00:00,338.0,10.04,339.0,12.35,12.49,47.59359,-54.27349
2021-12-29 04:34:00+00:00,336.0,8.29,334.0,9.85,12.49,47.59359,-54.27349
2021-12-29 04:44:00+00:00,340.0,10.12,344.0,12.96,12.49,47.59359,-54.27349
2021-12-29 04:54:00+00:00,324.0,12.67,319.0,15.13,12.49,47.59359,-54.27349
2021-12-29 05:04:00+00:00,332.0,13.4,322.0,15.43,12.49,47.59359,-54.27349
2021-12-29 05:14:00+00:00,325.0,11.66,317.0,13.92,12.49,47.59359,-54.27349
2021-12-29 05:24:00+00:00,329.0,11.42,328.0,14.05,12.49,47.59359,-54.27349
2021-12-29 05:34:00+00:00,332.0,10.7,320.0,14.62,12.49,47.59359,-54.27349
2021-12-29 05:44:00+00:00,340.0,9.97,315.0,11.42,12.49,47.59359,-54.27349
2021-12-29 05:54:00+00:00,325.0,11.83,319.0,13.72,12.49,47.59359,-54.27349
2021-12-29 06:04:00+00:00,334.0,10.07,330.0,11.72,12.49,47.59359,-54.27349
2021-12-29 06:14:00+00:00,340.0,10.76,343.0,12.29,12.41,47.59359,-54.27349
2021-12-29 06:24:00+00:00,341.0,9.85,343.0,11.38,12.41,47.59359,-54.27349
2021-12-29 06:34:00+00:00,341.0,10.57,316.0,12.14,12.41,47.59359,-54.27349
2021-12-29 06:44:00+00:00,337.0,9.24,321.0,11.26,12.41,47.59359,-54.27349
2021-12-29 06:54:00+00:00,328.0,10.53,316.0,12.87,12.41,47.59359,-54.27349
2021-12-29 07:04:00+00:00,346.0,8.83,345.0,11.44,12.41,47.59359,-54.27349
2021-12-29 07:14:01+00:00,344.0,8.02,343.0,9.46,12.41,47.59359,-54.27349
2021-12-29 07:24:01+00:00,346.0,10.24,346.0,11.46,12.41,47.59359,-54.27349
2021-12-29 07:34:01+00:00,342.0,9.51,341.0,11.6,12.41,47.59359,-54.27349
2021-12-29 07:44:01+00:00,342.0,9.27,340.0,11.6,12.41,47.59359,-54.27349
2021-12-29 07:54:01+00:00,349.0,8.77,344.0,10.13,12.41,47.59359,-54.27349
2021-12-29 08:04:01+00:00,344.0,8.96,344.0,10.22,12.41,47.59359,-54.27349
2021-12-29 08:14:00+00:00,346.0,8.29,340.0,10.3,12.41,47.59359,-54.27349
2021-12-29 08:24:00+00:00,357.0,8.39,356.0,9.62,12.41,47.59359,-54.27349
2021-12-29 08:34:00+00:00,353.0,8.12,341.0,9.7,12.41,47.59359,-54.27349
2021-12-29 08:44:00+00:00,357.0,9.74,354.0,10.71,12.41,47.59359,-54.27349
2021-12-29 08:54:00+00:00,358.0,9.0,3.0,10.0,12.41,47.59359,-54.27349
2021-12-29 09:04:00+00:00,359.0,7.17,1.0,8.16,12.41,47.59359,-54.27349
2021-12-29 09:14:00+00:00,356.0,7.55,358.0,8.51,12.41,47.59359,-54.27349
2021-12-29 09:24:00+00:00,358.0,7.67,358.0,8.69,12.41,47.59359,-54.27349
2021-12-29 09:34:00+00:00,0.0,7.07,357.0,7.74,12.41,47.59359,-54.27349
2021-12-29 09:44:00+00:00,0.0,8.05,4.0,9.79,12.41,47.59359,-54.27349
2021-12-29 09:54:00+00:00,359.0,8.51,357.0,9.55,12.41,47.59359,-54.27349
2021-12-29 10:04:00+00:00,356.0,7.79,354.0,8.8,12.41,47.59359,-54.27349
2021-12-29 10:14:00+00:00,358.0,6.94,354.0,8.07,12.41,47.59359,-54.27349
2021-12-29 10:24:00+00:00,359.0,6.17,4.0,7.36,12.41,47.59359,-54.27349
2021-12-29 10:34:00+00:00,355.0,6.28,358.0,7.03,12.41,47.59359,-54.27349
2021-12-29 10:44:00+00:00,355.0,6.73,359.0,7.46,12.41,47.59359,-54.27349
2021-12-29 10:54:00+00:00,3.0,6.31,0.0,7.22,12.41,47.59359,-54.27349
2021-12-29 11:04:00+00:00,1.0,6.35,6.0,7.29,12.41,47.59359,-54.27349
2021-12-29 11:14:01+00:00,343.0,7.75,342.0,8.93,12.33,47.59359,-54.27349
2021-12-29 11:24:01+00:00,354.0,7.83,343.0,8.96,12.33,47.59359,-54.27349
2021-12-29 11:34:01+00:00,352.0,8.19,8.0,9.36,12.33,47.59359,-54.27349
2021-12-29 11:44:01+00:00,358.0,6.98,7.0,8.02,12.33,47.59359,-54.27349
2021-12-29 11:54:01+00:00,359.0,6.19,341.0,7.31,12.33,47.59359,-54.27349
2021-12-29 12:04:01+00:00,350.0,6.04,335.0,7.03,12.33,47.59359,-54.27349
2021-12-29 12:14:01+00:00,342.0,5.99,335.0,6.57,12.41,47.59359,-54.27349
2021-12-29 12:24:01+00:00,349.0,5.35,344.0,6.79,12.41,47.59359,-54.27349
2021-12-29 12:34:01+00:00,333.0,5.34,335.0,6.55,12.41,47.59359,-54.27349
2021-12-29 12:44:01+00:00,319.0,6.03,313.0,6.83,12.41,47.59359,-54.27349
2021-12-29 12:54:01+00:00,318.0,6.25,310.0,7.24,12.41,47.59359,-54.27349
2021-12-29 13:04:01+00:00,344.0,6.31,333.0,7.55,12.41,47.59359,-54.27349
2021-12-29 13:14:01+00:00,354.0,8.56,355.0,9.33,13.84,47.59359,-54.27349
2021-12-29 13:24:01+00:00,2.0,7.2,5.0,8.13,13.84,47.59359,-54.27349
2021-12-29 13:34:01+00:00,1.0,8.76,3.0,10.66,13.84,47.59359,-54.27349
2021-12-29 13:44:01+00:00,20.0,10.45,17.0,11.71,13.84,47.59359,-54.27349
2021-12-29 13:54:01+00:00,4.0,9.56,17.0,11.82,13.84,47.59359,-54.27349
2021-12-29 14:04:01+00:00,2.0,7.2,15.0,8.62,13.84,47.59359,-54.27349
2021-12-29 14:14:01+00:00,0.0,7.27,4.0,8.83,13.68,47.59359,-54.27349
2021-12-29 14:24:01+00:00,1.0,9.19,359.0,11.42,13.68,47.59359,-54.27349
2021-12-29 14:34:01+00:00,3.0,8.16,4.0,9.65,13.68,47.59359,-54.27349
2021-12-29 14:44:01+00:00,2.0,8.88,359.0,10.22,13.68,47.59359,-54.27349
2021-12-29 14:54:01+00:00,0.0,7.73,358.0,8.83,13.68,47.59359,-54.27349
2021-12-29 15:04:01+00:00,1.0,9.41,0.0,10.61,13.68,47.59359,-54.27349
2021-12-29 15:14:01+00:00,1.0,8.49,3.0,10.05,13.92,47.59359,-54.27349
2021-12-29 15:24:01+00:00,3.0,8.8,356.0,9.73,13.92,47.59359,-54.27349
2021-12-29 15:34:01+00:00,3.0,7.05,4.0,7.86,13.92,47.59359,-54.27349
2021-12-29 15:44:01+00:00,0.0,7.11,356.0,8.09,13.92,47.59359,-54.27349
2021-12-29 15:54:01+00:00,12.0,6.78,6.0,8.75,13.92,47.59359,-54.27349
2021-12-29 16:04:01+00:00,23.0,8.52,21.0,9.53,13.92,47.59359,-54.27349
2021-12-29 16:14:01+00:00,4.0,8.75,6.0,10.15,13.6,47.59359,-54.27349
2021-12-29 16:24:01+00:00,8.0,8.16,5.0,9.99,13.6,47.59359,-54.27349
2021-12-29 16:34:01+00:00,5.0,8.64,1.0,10.71,13.6,47.59359,-54.27349
2021-12-29 16:44:01+00:00,0.0,10.31,4.0,11.28,13.6,47.59359,-54.27349
2021-12-29 16:54:01+00:00,352.0,8.75,356.0,10.41,13.6,47.59359,-54.27349
2021-12-29 17:04:01+00:00,2.0,8.77,2.0,9.79,13.6,47.59359,-54.27349
2021-12-29 17:14:01+00:00,2.0,8.63,2.0,10.26,13.68,47.59359,-54.27349
2021-12-29 17:24:01+00:00,353.0,10.31,356.0,11.51,13.68,47.59359,-54.27349
2021-12-29 17:34:01+00:00,3.0,9.88,4.0,11.49,13.68,47.59359,-54.27349
2021-12-29 17:44:01+00:00,3.0,8.8,5.0,9.83,13.68,47.59359,-54.27349
2021-12-29 17:54:01+00:00,356.0,7.87,344.0,9.02,13.68,47.59359,-54.27349
2021-12-29 18:04:01+00:00,8.0,8.85,9.0,10.32,13.68,47.59359,-54.27349
2021-12-29 18:14:01+00:00,4.0,9.55,10.0,11.16,13.44,47.59359,-54.27349
2021-12-29 18:24:01+00:00,359.0,10.14,359.0,12.2,13.44,47.59359,-54.27349
2021-12-29 18:34:01+00:00,0.0,7.52,0.0,9.51,13.44,47.59359,-54.27349
2021-12-29 18:44:01+00:00,356.0,9.72,0.0,11.68,13.44,47.59359,-54.27349
2021-12-29 18:54:01+00:00,358.0,9.47,2.0,11.0,13.44,47.59359,-54.27349
2021-12-29 19:04:01+00:00,1.0,11.72,359.0,13.11,13.44,47.59359,-54.27349
2021-12-29 19:14:01+00:00,3.0,9.62,2.0,11.09,13.68,47.59359,-54.27349
2021-12-29 19:24:01+00:00,1.0,9.82,4.0,11.89,13.68,47.59359,-54.27349
2021-12-29 19:34:01+00:00,357.0,9.24,357.0,10.13,13.68,47.59359,-54.27349
2021-12-29 19:44:01+00:00,356.0,10.26,355.0,11.6,13.68,47.59359,-54.27349
2021-12-29 19:54:01+00:00,357.0,9.65,358.0,11.26,13.68,47.59359,-54.27349
2021-12-29 20:04:01+00:00,359.0,11.08,3.0,12.26,13.68,47.59359,-54.27349
2021-12-29 20:14:01+00:00,1.0,9.15,1.0,10.82,12.81,47.59359,-54.27349
2021-12-29 20:24:01+00:00,1.0,8.61,1.0,9.97,12.81,47.59359,-54.27349
2021-12-29 20:34:01+00:00,4.0,10.19,12.0,12.47,12.81,47.59359,-54.27349
2021-12-29 20:44:01+00:00,358.0,8.58,355.0,11.05,12.81,47.59359,-54.27349
2021-12-29 20:54:01+00:00,357.0,10.78,353.0,11.87,12.81,47.59359,-54.27349
2021-12-29 21:04:01+00:00,1.0,9.98,0.0,12.07,12.81,47.59359,-54.27349
2021-12-29 21:14:01+00:00,5.0,10.4,5.0,12.22,12.65,47.59359,-54.27349
2021-12-29 21:24:01+00:00,2.0,10.57,4.0,12.14,12.65,47.59359,-54.27349
2021-12-29 21:34:01+00:00,1.0,10.03,2.0,11.81,12.65,47.59359,-54.27349
2021-12-29 21:44:01+00:00,0.0,11.25,359.0,13.05,12.65,47.59359,-54.27349
2021-12-29 21:54:01+00:00,3.0,11.58,8.0,13.44,12.65,47.59359,-54.27349
2021-12-29 22:04:01+00:00,6.0,10.31,9.0,12.35,12.65,47.59359,-54.27349
2021-12-29 22:14:01+00:00,4.0,10.24,1.0,12.45,12.57,47.59359,-54.27349
2021-12-29 22:24:01+00:00,0.0,11.55,358.0,13.21,12.57,47.59359,-54.27349
2021-12-29 22:34:01+00:00,356.0,11.61,356.0,12.99,12.57,47.59359,-54.27349
2021-12-29 22:44:01+00:00,359.0,10.81,0.0,11.87,12.57,47.59359,-54.27349
2021-12-29 22:54:01+00:00,359.0,11.14,359.0,14.14,12.57,47.59359,-54.27349
2021-12-29 23:04:01+00:00,5.0,9.69,5.0,11.45,12.57,47.59359,-54.27349
2021-12-29 23:14:01+00:00,1.0,10.07,4.0,11.85,12.57,47.59359,-54.27349
2021-12-29 23:24:01+00:00,358.0,11.3,355.0,13.06,12.57,47.59359,-54.27349
2021-12-29 23:34:01+00:00,1.0,11.29,0.0,12.27,12.57,47.59359,-54.27349
2021-12-29 23:44:01+00:00,4.0,11.65,0.0,13.44,12.57,47.59359,-54.27349
2021-12-29 23:54:01+00:00,0.0,10.43,356.0,11.62,12.57,47.59359,-54.27349
